FW6381 Weather Reports


Display with metric or nautical units.
time (UTC)temp
F
wind
direction
speed
MPH
gust
MPH
rain 1hr
in
rain 24hr
in
rain mn
in
humidity
%
barometer
mb
20260505230503 49 338 1.0 4.0 0.10 0.37 0.35 95 1008.7
20260505230003 49 339 2.0 6.0 0.10 0.36 0.33 95 1008.8
20260505225505 49 339 2.0 6.0 0.10 0.34 0.32 95 1008.8
20260505225003 49 336 3.0 10.0 0.12 0.34 0.32 95 1008.9
20260505224503 49 333 3.0 10.0 0.10 0.33 0.31 95 1008.9
20260505224005 49 332 3.0 8.0 0.12 0.33 0.31 94 1009.0
20260505223503 49 333 3.0 8.0 0.13 0.32 0.30 94 1009.0
20260505223004 49 334 2.0 5.0 0.13 0.31 0.29 94 1009.0
20260505222713 49 334 2.0 5.0 0.14 0.31 0.29 94 1009.0
20260505222214 49 332 3.0 8.0 0.15 0.30 0.28 94 1008.9
20260505221503 49 332 4.0 12.0 0.17 0.29 0.26 93 1008.9
20260505221003 50 333 5.0 13.0 0.18 0.28 0.25 93 1008.9
20260505220713 50 329 6.0 15.0 0.18 0.28 0.25 93 1008.8
20260505220005 50 333 7.0 15.0 0.18 0.25 0.23 93 1008.7
20260505215503 50 337 7.0 17.0 0.18 0.24 0.22 93 1008.9
20260505215003 50 335 6.0 17.0 0.17 0.23 0.21 93 1009.0
20260505214503 50 336 6.0 14.0 0.17 0.23 0.21 93 1008.8
20260505214214 51 334 7.0 14.0 0.17 0.22 0.20 93 1008.9
20260505213503 51 335 6.0 15.0 0.15 0.20 0.17 93 1008.6
20260505213003 52 332 6.0 20.0 0.14 0.18 0.16 93 1008.4
20260505212505 53 326 7.0 20.0 0.13 0.17 0.15 93 1008.3
20260505212003 53 293 7.0 20.0 0.09 0.14 0.11 93 1008.5
20260505211503 54 242 7.0 18.0 0.07 0.12 0.09 92 1008.2
20260505211216 54 233 8.0 18.0 0.06 0.10 0.08 92 1008.0
20260505210503 54 228 8.0 19.0 0.03 0.08 0.06 91 1007.8
20260505210003 54 222 7.0 18.0 0.02 0.07 0.05 91 1007.6
20260505205503 54 219 7.0 19.0 0.01 0.06 0.03 90 1007.5
20260505205214 55 221 7.0 19.0 0.01 0.06 0.03 90 1007.5
20260505204505 55 227 6.0 18.0 0.01 0.06 0.03 89 1007.3
20260505204003 55 235 7.0 18.0 0.00 0.05 0.02 88 1007.2
20260505203505 56 233 7.0 18.0 0.00 0.05 0.02 88 1007.1
20260505203005 56 227 9.0 18.0 0.00 0.05 0.02 87 1006.9
20260505202503 56 225 9.0 18.0 0.00 0.05 0.02 86 1007.0
20260505202003 56 222 9.0 19.0 0.00 0.05 0.02 86 1007.0
20260505201505 56 224 9.0 20.0 0.00 0.05 0.02 86 1007.0
20260505201003 56 223 10.0 28.0 0.00 0.05 0.02 84 1007.1
20260505200712 56 222 11.0 28.0 0.00 0.05 0.02 83 1007.1
20260505200003 56 222 11.0 24.0 0.00 0.05 0.02 82 1007.2
20260505195504 57 221 11.0 23.0 0.00 0.05 0.02 81 1007.0
20260505195005 58 220 10.0 22.0 0.00 0.05 0.02 79 1006.7
20260505194503 58 223 10.0 26.0 0.00 0.05 0.02 78 1006.5
20260505194003 59 223 10.0 27.0 0.00 0.05 0.02 78 1006.4
20260505193503 60 226 12.0 27.0 0.00 0.05 0.02 77 1006.4
20260505193005 60 226 11.0 27.0 0.00 0.05 0.02 76 1006.4
20260505192503 61 223 11.0 27.0 0.00 0.05 0.02 74 1006.3
20260505192003 62 218 10.0 22.0 0.00 0.05 0.02 72 1006.0
20260505191503 63 223 11.0 24.0 0.00 0.05 0.02 71 1006.3
20260505191003 64 232 15.0 37.0 0.00 0.05 0.02 69 1006.1
20260505190503 65 241 18.0 42.0 0.00 0.05 0.02 68 1006.2
20260505190005 66 244 18.0 42.0 0.00 0.05 0.02 67 1006.2
20260505185503 66 244 18.0 44.0 0.00 0.05 0.02 66 1006.2
20260505185003 66 249 18.0 44.0 0.00 0.05 0.02 65 1006.0
20260505184503 67 252 17.0 37.0 0.00 0.05 0.02 65 1006.0
20260505184215 67 250 17.0 37.0 0.00 0.05 0.02 65 1005.8
20260505183503 67 240 18.0 35.0 0.00 0.05 0.02 65 1005.9
20260505183213 67 243 17.0 35.0 0.00 0.05 0.02 66 1005.7
20260505182503 66 256 18.0 35.0 0.00 0.05 0.02 66 1005.8
20260505182003 66 248 20.0 44.0 0.00 0.05 0.02 67 1005.6
20260505181504 66 249 20.0 44.0 0.00 0.05 0.02 67 1005.6
20260505181003 66 260 18.0 41.0 0.00 0.05 0.02 68 1005.8
20260505180503 66 260 15.0 37.0 0.00 0.05 0.02 68 1005.6
20260505180003 65 252 16.0 41.0 0.00 0.05 0.02 68 1005.4
20260505175503 65 246 17.0 41.0 0.00 0.05 0.02 69 1005.5
20260505175003 65 249 17.0 38.0 0.00 0.05 0.02 68 1005.5
20260505174503 66 246 18.0 35.0 0.00 0.05 0.02 68 1005.3
20260505174003 66 242 17.0 36.0 0.00 0.05 0.02 69 1005.6
20260505173503 66 255 19.0 42.0 0.00 0.05 0.02 69 1005.5
20260505173003 66 251 21.0 47.0 0.00 0.05 0.02 69 1005.5
20260505172503 66 246 21.0 52.0 0.00 0.05 0.02 69 1005.5
20260505172003 65 247 21.0 54.0 0.00 0.05 0.02 70 1005.6
20260505171503 65 246 16.0 54.0 0.00 0.05 0.02 69 1005.6
20260505171003 65 244 17.0 38.0 0.00 0.05 0.02 69 1005.6
20260505170505 65 243 22.0 44.0 0.00 0.05 0.02 68 1005.5
20260505170003 65 245 23.0 44.0 0.00 0.05 0.02 67 1005.5
20260505165503 66 244 20.0 44.0 0.00 0.05 0.02 67 1005.4
20260505165003 66 242 18.0 44.0 0.00 0.05 0.02 66 1005.5
20260505164503 66 234 18.0 37.0 0.00 0.05 0.02 67 1005.4
20260505164005 66 231 20.0 37.0 0.00 0.05 0.02 69 1005.5
20260505163503 65 234 19.0 35.0 0.00 0.05 0.02 68 1005.3
20260505163005 65 234 16.0 37.0 0.00 0.05 0.02 68 1005.0
20260505162504 65 229 15.0 38.0 0.00 0.05 0.02 68 1005.0
20260505162214 65 228 16.0 38.0 0.00 0.05 0.02 68 1004.9
20260505161503 64 229 17.0 35.0 0.00 0.05 0.02 69 1004.6
20260505161003 63 236 16.0 36.0 0.00 0.05 0.02 70 1004.9
20260505160713 63 237 16.0 36.0 0.00 0.05 0.02 70 1005.0
20260505153004 65 247 19.0 37.0 0.00 0.05 0.02 65 1004.9
20260505152504 65 244 18.0 38.0 0.00 0.05 0.02 65 1004.6
20260505152003 65 241 17.0 38.0 0.00 0.05 0.02 66 1004.2
20260505151713 65 240 16.0 32.0 0.00 0.05 0.02 67 1004.4
20260505151003 64 242 15.0 37.0 0.00 0.05 0.02 68 1004.3
20260505150503 64 244 14.0 27.0 0.00 0.05 0.02 69 1004.2
20260505140503 64 246 16.0 36.0 0.00 0.05 0.02 68 1003.8
20260505125003 67 231 10.0 32.0 0.00 0.05 0.02 66 1002.7
20260505124503 67 223 11.0 32.0 0.00 0.05 0.02 65 1002.6
20260505124003 67 223 13.0 32.0 0.00 0.05 0.02 66 1002.5
20260505123503 67 222 14.0 31.0 0.00 0.05 0.02 65 1002.5
20260505123215 67 223 15.0 31.0 0.00 0.05 0.02 65 1002.4
20260505122503 67 223 13.0 31.0 0.00 0.05 0.02 66 1002.5
20260505122003 66 227 13.0 27.0 0.00 0.05 0.02 66 1002.4
20260505121713 66 230 13.0 28.0 0.00 0.05 0.02 67 1002.4
20260505121003 66 223 14.0 31.0 0.00 0.05 0.02 67 1002.3
20260505120504 66 221 12.0 28.0 0.00 0.05 0.02 67 1002.1
20260505120005 66 223 11.0 26.0 0.00 0.05 0.02 67 1002.2
20260505115505 66 224 11.0 29.0 0.00 0.05 0.02 67 1002.1
20260505115005 66 217 11.0 29.0 0.00 0.05 0.02 68 1002.0
20260505114503 66 216 10.0 29.0 0.00 0.05 0.02 68 1002.0
20260505114006 66 218 10.0 29.0 0.00 0.05 0.02 68 1001.9
20260505113503 66 216 11.0 23.0 0.00 0.05 0.02 68 1002.0
20260505113005 66 218 11.0 23.0 0.00 0.05 0.02 69 1001.9
20260505112713 66 219 10.0 23.0 0.00 0.05 0.02 69 1001.8
20260505112004 65 218 10.0 23.0 0.00 0.05 0.02 69 1001.9
20260505111713 65 219 10.0 23.0 0.00 0.05 0.02 70 1001.9
20260505111003 65 217 9.0 19.0 0.00 0.05 0.02 70 1001.9
20260505110503 65 217 9.0 27.0 0.00 0.05 0.02 71 1001.6
20260505102003 63 205 9.0 22.0 0.00 0.05 0.02 76 1001.0
20260505101503 63 209 9.0 22.0 0.00 0.05 0.02 77 1001.0
20260505101003 62 205 8.0 18.0 0.00 0.05 0.02 78 1001.0
20260505100505 62 206 7.0 18.0 0.00 0.05 0.02 78 1000.9
20260505100003 61 200 8.0 15.0 0.00 0.05 0.02 79 1000.9
20260505095503 61 191 8.0 19.0 0.00 0.05 0.02 80 1000.9
20260505095003 61 192 7.0 19.0 0.00 0.05 0.02 81 1001.0
20260505094503 60 204 6.0 13.0 0.00 0.05 0.02 82 1000.9
20260505094003 60 192 6.0 13.0 0.00 0.05 0.02 83 1001.0
20260505093505 60 181 5.0 14.0 0.00 0.05 0.02 84 1000.9
20260505093004 60 198 6.0 14.0 0.00 0.05 0.02 84 1000.9
20260505092503 59 183 6.0 13.0 0.00 0.05 0.02 86 1001.0
20260505092003 59 166 6.0 13.0 0.00 0.05 0.02 87 1000.9
20260505091503 59 168 5.0 12.0 0.00 0.05 0.02 87 1000.8
20260505091003 58 180 5.0 13.0 0.00 0.05 0.02 87 1000.7
20260505090503 58 174 5.0 13.0 0.00 0.05 0.02 88 1000.8
20260505090004 58 168 5.0 13.0 0.00 0.05 0.02 88 1000.8
20260505085503 58 173 5.0 12.0 0.00 0.05 0.02 89 1000.7
20260505085003 58 186 6.0 12.0 0.00 0.05 0.02 89 1000.9
20260505084712 58 185 6.0 12.0 0.00 0.05 0.02 89 1000.8
20260505084003 58 178 6.0 13.0 0.00 0.05 0.02 90 1000.9
20260505083503 57 180 6.0 14.0 0.00 0.05 0.02 91 1001.0
20260505083213 57 176 7.0 14.0 0.00 0.05 0.02 91 1001.0
20260505082503 57 168 6.0 14.0 0.00 0.05 0.02 92 1001.0
20260505082003 56 163 6.0 13.0 0.00 0.05 0.02 93 1001.0
20260505081714 56 161 6.0 13.0 0.00 0.05 0.02 93 1001.0
20260505081003 56 163 7.0 12.0 0.00 0.05 0.02 93 1001.3
20260505080503 56 165 7.0 12.0 0.00 0.05 0.02 94 1001.3
20260505080003 56 165 6.0 13.0 0.00 0.05 0.02 94 1001.3
20260505075503 56 164 6.0 13.0 0.00 0.05 0.02 94 1001.3
20260505075003 55 161 6.0 13.0 0.00 0.05 0.02 94 1001.4
20260505074503 55 162 6.0 13.0 0.00 0.05 0.02 94 1001.4
20260505074005 55 166 5.0 12.0 0.00 0.05 0.02 94 1001.4
20260505073503 55 174 5.0 12.0 0.00 0.05 0.02 94 1001.5
20260505073003 55 173 5.0 12.0 0.00 0.05 0.02 94 1001.5
20260505072504 55 173 5.0 12.0 0.00 0.05 0.02 94 1001.5
20260505072213 55 172 5.0 12.0 0.00 0.05 0.02 94 1001.5
20260505071503 55 162 5.0 12.0 0.00 0.05 0.02 94 1001.8
20260505071003 55 164 6.0 13.0 0.00 0.05 0.02 93 1001.7
20260505070503 55 164 7.0 13.0 0.00 0.05 0.02 93 1002.0
20260505070003 55 169 6.0 13.0 0.00 0.05 0.02 93 1002.0
20260505065505 55 171 5.0 13.0 0.00 0.05 0.02 93 1002.2
20260505065004 55 176 5.0 15.0 0.01 0.05 0.02 93 1002.1
20260505064715 55 185 5.0 15.0 0.01 0.05 0.02 93 1002.2
20260505064003 55 233 7.0 18.0 0.02 0.05 0.02 93 1002.6
20260505063503 56 249 8.0 18.0 0.02 0.05 0.02 93 1003.0
20260505063003 56 242 7.0 18.0 0.02 0.05 0.02 92 1003.9
20260505062503 56 238 6.0 15.0 0.02 0.05 0.02 92 1002.9
20260505062003 55 243 6.0 15.0 0.02 0.05 0.02 91 1003.0
20260505061503 56 237 6.0 13.0 0.02 0.05 0.02 91 1003.1
20260505061003 56 220 7.0 13.0 0.02 0.05 0.02 90 1002.8
20260505060715 56 217 7.0 13.0 0.02 0.05 0.02 90 1003.1
20260505060003 56 220 10.0 22.0 0.02 0.05 0.02 89 1002.9
20260505055713 56 221 11.0 23.0 0.02 0.05 0.02 88 1003.2
20260505055003 57 225 14.0 32.0 0.01 0.03 0.01 84 1003.3
20260505054503 58 226 18.0 37.0 0.00 0.02 0.00 81 1003.4
20260505054005 60 225 18.0 37.0 0.00 0.02 0.00 78 1003.5
20260505053715 60 224 16.0 35.0 0.00 0.02 0.00 78 1003.3
20260505053003 60 223 10.0 27.0 0.00 0.02 0.00 77 1003.1
20260505052503 60 226 10.0 24.0 0.00 0.02 0.00 77 1002.9
20260505052003 60 232 11.0 26.0 0.00 0.02 0.00 76 1002.9
20260505051713 61 232 12.0 29.0 0.00 0.02 0.00 75 1002.7
20260505051003 61 222 14.0 32.0 0.00 0.02 0.00 71 1002.9
20260505050503 62 229 16.0 37.0 0.00 0.02 0.00 70 1003.1
20260505041506 64 217 10.0 28.0 0.00 0.02 0.00 74 1002.6
20260505041003 64 210 13.0 28.0 0.00 0.02 0.00 72 1002.5
20260505040504 64 207 13.0 32.0 0.00 0.02 0.00 69 1002.4
20260505040004 64 205 11.0 32.0 0.00 0.02 0.00 69 1002.5
20260505035505 64 201 9.0 19.0 0.00 0.02 0.02 69 1002.6
20260505035003 64 195 7.0 18.0 0.00 0.02 0.02 70 1002.4
20260505034503 63 192 6.0 15.0 0.00 0.02 0.02 70 1002.3
20260505034003 63 194 6.0 15.0 0.00 0.02 0.02 71 1002.3
20260505033503 62 188 6.0 13.0 0.00 0.02 0.02 71 1002.2
20260505033003 62 185 5.0 13.0 0.01 0.02 0.02 71 1002.3
20260505032503 62 190 5.0 10.0 0.01 0.02 0.02 71 1002.4
20260505032003 61 206 4.0 10.0 0.01 0.02 0.02 71 1002.4
20260505031714 61 206 4.0 10.0 0.01 0.02 0.02 71 1002.6
20260505031005 61 189 3.0 12.0 0.02 0.02 0.02 71 1002.6
20260505030714 61 194 3.0 12.0 0.02 0.02 0.02 71 1002.7
20260505030003 60 208 3.0 8.0 0.02 0.02 0.02 70 1002.8
20260505025503 60 218 3.0 12.0 0.02 0.02 0.02 70 1002.8
20260505025004 60 221 4.0 13.0 0.02 0.02 0.02 70 1002.9
20260505024503 60 216 5.0 14.0 0.02 0.02 0.02 70 1003.0
20260505024003 60 202 5.0 17.0 0.02 0.02 0.02 69 1003.0
20260505023505 60 194 6.0 17.0 0.02 0.02 0.02 70 1002.9
20260505023005 60 193 6.0 14.0 0.01 0.01 0.01 71 1002.9
20260505022503 60 179 8.0 20.0 0.01 0.01 0.01 70 1002.9
20260505022003 60 187 11.0 28.0 0.01 0.01 0.01 69 1002.8
20260505021503 61 202 8.0 28.0 0.01 0.01 0.01 66 1003.0
20260505021003 60 194 4.0 27.0 0.00 0.00 0.00 62 1003.7
20260505020503 60 168 4.0 8.0 0.00 0.00 0.00 58 1003.4
20260505020003 60 166 4.0 9.0 0.00 0.00 0.00 56 1003.0
20260505015504 60 171 4.0 9.0 0.00 0.00 0.00 56 1002.7
20260505015004 60 177 4.0 9.0 0.00 0.00 0.00 56 1002.8
20260505014503 60 180 4.0 9.0 0.00 0.00 0.00 56 1002.8
20260505014005 60 181 3.0 8.0 0.00 0.00 0.00 56 1002.8
20260505013503 60 174 3.0 6.0 0.00 0.00 0.00 56 1002.7
20260505013004 60 170 4.0 12.0 0.00 0.00 0.00 57 1002.7
20260505012504 60 172 5.0 12.0 0.00 0.00 0.00 56 1002.9
20260505012003 60 188 4.0 9.0 0.00 0.00 0.00 57 1003.0
20260505011503 60 192 4.0 8.0 0.00 0.00 0.00 57 1003.1
20260505011003 60 179 4.0 10.0 0.00 0.00 0.00 56 1003.0
20260505010503 60 193 5.0 10.0 0.00 0.00 0.00 56 1002.9
20260505010003 60 184 5.0 13.0 0.00 0.00 0.00 57 1002.9
20260505005505 61 167 5.0 12.0 0.00 0.00 0.00 56 1002.8
20260505005004 61 179 5.0 9.0 0.00 0.00 0.00 55 1002.9
20260505004715 62 180 5.0 8.0 0.00 0.00 0.00 54 1002.9
20260505004003 62 177 5.0 13.0 0.00 0.00 0.00 53 1002.9
20260505003503 63 195 4.0 12.0 0.00 0.00 0.00 52 1003.0
20260505003003 64 190 4.0 9.0 0.00 0.00 0.00 52 1003.0
20260505002503 64 171 5.0 9.0 0.00 0.00 0.00 50 1003.0
20260505002003 65 180 5.0 9.0 0.00 0.00 0.00 48 1003.0
20260505001715 65 186 4.0 9.0 0.00 0.00 0.00 47 1003.0
20260505001214 66 198 3.0 8.0 0.00 0.00 0.00 47 1002.9
20260505000503 67 192 4.0 8.0 0.00 0.00 0.00 46 1003.0
20260505000005 67 183 5.0 9.0 0.00 0.00 0.00 45 1003.0
20260504235503 68 186 5.0 9.0 0.00 0.00 0.00 45 1002.9
20260504235006 69 214 6.0 15.0 0.00 0.00 0.00 44 1003.0
20260504234504 69 224 7.0 15.0 0.00 0.00 0.00 41 1003.0
20260504234003 69 223 6.0 13.0 0.00 0.00 0.00 41 1003.0
20260504233503 69 225 7.0 19.0 0.00 0.00 0.00 41 1002.9
20260504233003 69 236 9.0 20.0 0.00 0.00 0.00 41 1002.9
20260504232503 69 237 10.0 22.0 0.00 0.00 0.00 40 1003.0
20260504232003 70 235 11.0 23.0 0.00 0.00 0.00 41 1003.0
20260504231503 70 237 11.0 24.0 0.00 0.00 0.00 42 1003.0
20260504231213 70 237 11.0 24.0 0.00 0.00 0.00 43 1003.1